Date,TemperatureHighF,TemperatureAvgF,TemperatureLowF,DewpointHighF,DewpointAvgF,DewpointLowF,HumidityHigh,HumidityAvg,HumidityLow,PressureMaxIn,PressureMinIn,WindSpeedMaxMPH,WindSpeedAvgMPH,GustSpeedMaxMPH,PrecipitationSumIn
2013-8-1,74.0,63.7,53.5,60.0,56.7,52.1,97,79,54,29.99,29.77,10,3,20,0.00
2013-8-2,72.0,63.1,56.4,61.5,57.6,52.8,100,83,56,29.77,29.68,5,0,14,0.05
2013-8-3,64.7,57.2,52.9,57.7,54.3,52.1,100,91,67,29.77,29.67,6,0,20,0.29
2013-8-4,65.1,55.2,50.0,57.0,53.0,48.3,100,93,68,29.83,29.73,6,0,17,0.18
2013-8-5,60.5,51.4,46.0,49.8,46.3,41.3,97,84,51,30.02,29.83,7,1,18,0.11
2013-8-6,71.2,58.5,45.4,55.0,49.7,44.6,100,75,45,30.11,30.02,3,0,10,0.00
2013-8-7,71.9,61.5,49.3,58.0,53.6,48.3,97,77,52,30.13,30.01,9,2,14,0.00
2013-8-8,74.4,64.6,57.3,65.7,60.9,54.8,97,88,72,30.01,29.92,8,1,14,0.14
2013-8-9,69.1,65.0,62.6,67.3,64.5,62.2,100,98,92,29.94,29.69,5,0,10,0.44
2013-8-10,64.0,59.3,51.8,64.0,53.6,48.3,100,82,63,29.95,29.69,5,1,20,0.00
2013-8-11,69.5,57.4,45.4,54.1,49.9,44.3,100,78,54,30.02,29.94,5,1,15,0.00
2013-8-12,71.2,60.6,51.5,56.1,52.6,49.7,97,77,52,29.98,29.87,6,1,12,0.00
2013-8-13,66.2,58.9,51.3,59.7,55.5,50.1,97,89,73,29.87,29.62,6,1,13,0.00
2013-8-14,61.2,55.2,49.5,57.9,51.7,46.9,96,88,75,29.86,29.59,5,0,17,0.00
2013-8-15,66.5,55.5,44.9,51.2,48.2,43.8,97,78,56,30.05,29.86,5,1,15,0.00
2013-8-16,69.3,57.6,48.8,56.8,51.6,47.2,100,82,57,30.17,30.03,5,0,12,0.45
2013-8-17,67.5,56.3,48.2,56.0,50.2,47.0,100,82,52,30.26,30.18,3,0,12,0.00
2013-8-18,72.7,57.9,44.5,57.2,51.4,44.5,100,81,54,30.26,30.04,5,0,10,0.00
2013-8-19,75.2,63.1,50.9,61.7,56.7,50.1,100,81,60,30.04,29.89,6,0,20,0.00
2013-8-20,75.9,65.5,57.1,61.2,58.3,55.8,97,79,51,30.04,29.94,5,0,17,0.00
2013-8-21,79.4,67.4,57.0,64.5,60.0,56.2,100,79,54,30.08,29.93,7,1,17,0.00
2013-8-22,76.7,67.3,58.9,66.9,62.0,57.7,97,84,66,29.94,29.73,3,0,13,0.05
2013-8-23,65.3,57.8,46.5,54.5,48.6,44.5,94,73,51,30.16,29.89,6,1,20,0.06
2013-8-24,70.8,56.1,43.6,51.1,47.1,42.9,100,76,39,30.32,30.16,3,0,12,0.00
2013-8-25,72.1,57.8,45.5,54.6,50.2,45.4,100,79,46,30.35,30.09,6,0,10,0.00
2013-8-26,63.0,59.2,54.9,63.0,58.5,51.9,100,98,81,30.08,29.85,2,0,6,0.21
2013-8-27,77.7,66.5,60.6,66.5,62.6,60.6,100,89,59,29.89,29.81,3,0,10,0.00
2013-8-28,76.3,65.8,60.1,67.3,62.7,59.7,100,90,69,29.94,29.83,8,1,16,0.05
2013-8-29,67.2,61.5,58.1,60.2,58.6,56.7,97,90,77,30.03,29.93,7,2,13,0.00
2013-8-30,73.9,63.3,57.7,66.6,60.6,56.6,100,91,75,29.96,29.74,2,0,17,0.59
2013-8-31,71.1,64.6,58.0,66.7,62.9,58.0,100,95,79,29.76,29.71,2,0,6,0.07